sat.trackr.live / text

‹ back to catalog

ONEWEB-0126

NORAD 47272 · 2020-100Q

PAYLOAD ACTIVE UNKNOWN

§ Identity

Operator
Country
UK
Launch date
2020-12-18
Launch site
VOSTO
Launch vehicle
Mass (kg)
RCS (m²)

Purposes: comms

External: N2YO · Heavens-Above · Gunter

§ Orbital elements

Epoch: 2026-09-09T05:00:10.353024Z

Period
109.72 min
Inclination
87.8991°
Eccentricity
0.0001780
Mean motion
13.12442737 rev/d
Perigee alt
1,212.4 km
Apogee alt
1,215.1 km
Semi-major
7,591.9 km
B*
8.0899e-4
RAAN
333.9871°
Arg perigee
99.7771°
Mean anomaly
260.3559°
Rev number
27,572

§ Raw data

ONEWEB-01261 47272U 20100Q   26252.20845316  .00000304  00000+0  80899-3 0  99942 47272  87.8991 333.9871 0001780  99.7771 260.3559 13.12442737275723

JSON: /api/v1/satellites/47272 · /tle

For live sub-satellite position, see the globe view (requires WebGL).

§ Visibility from observer

Set your observer location to see the next 7 days of passes ≥ 10°. The values pass through the URL so the page stays shareable.

No JS? Fill the form by hand. The geolocation button needs JavaScript.